This is the latest recevied weather packets stored in our database for station/object SIILIN. If no packets are shown the sender has not sent any weather packets the latest 10 day(s).
| Time | Temp. | Humidity | Pressure | Rain* | Wind** | Luminosity | Snow |
|---|---|---|---|---|---|---|---|
| 1777464410 | 6.67° C | 38% | 1024.4 hPa | - | - | - | - |
| 1777462011 | 6.11° C | 37% | 1024.8 hPa | - | - | - | - |
| 1777460811 | 6.11° C | 33% | 1024.9 hPa | - | - | - | - |
| 1777459610 | 5.56° C | 42% | 1024.9 hPa | - | - | - | - |
| 1777458411 | 5° C | 40% | 1025.1 hPa | - | - | - | - |
| 1777457210 | 4.44° C | 48% | 1025.4 hPa | - | - | - | - |
| 1777454810 | 3.89° C | 44% | 1025.6 hPa | - | - | - | - |
| 1777453610 | 3.89° C | 48% | 1025.7 hPa | - | - | - | - |
| 1777451210 | 3.33° C | 47% | 1026 hPa | - | - | - | - |
| 1777450010 | 3.33° C | 46% | 1026 hPa | - | - | - | - |
| 1777447610 | 2.78° C | 51% | 1026.2 hPa | - | - | - | - |
| 1777446410 | 2.78° C | 50% | 1026.3 hPa | - | - | - | - |
| 1777445209 | 2.22° C | 56% | 1026.4 hPa | - | - | - | - |
| 1777444009 | 1.67° C | 58% | 1026.4 hPa | - | - | - | - |
| 1777442809 | 1.67° C | 59% | 1026.3 hPa | - | - | - | - |
| 1777441609 | 1.11° C | 61% | 1026.3 hPa | - | - | - | - |
| 1777440409 | 1.11° C | 71% | 1026.4 hPa | - | - | - | - |
| 1777439209 | 0.56° C | 68% | 1026.4 hPa | - | - | - | - |
| 1777438009 | 0° C | 71% | 1026.4 hPa | - | - | - | - |
| 1777436809 | 0° C | 71% | 1026.2 hPa | - | - | - | - |
| 1777434409 | -0.56° C | 71% | 1026.1 hPa | - | - | - | - |
| 1777433209 | -0.56° C | 71% | 1026 hPa | - | - | - | - |
| 1777429610 | -0.56° C | 67% | 1025.6 hPa | - | - | - | - |
* Rain since midnight (hover to see other rain measurements)
** Current wind speed in m/s (hover to see current wind gust speed)